sat.trackr.live / text

‹ back to catalog

HULIANWANG DIGUI-111

NORAD 66921 · 2025-285G

PAYLOAD ACTIVE UNKNOWN

§ Identity

Operator
Country
PRC
Launch date
2025-12-06
Launch site
WSC
Launch vehicle
Mass (kg)
RCS (m²)

External: N2YO · Heavens-Above · Gunter

§ Orbital elements

Epoch: 2026-09-20T23:30:43.685856Z

Period
108.33 min
Inclination
50.0115°
Eccentricity
0.0000066
Mean motion
13.29329313 rev/d
Perigee alt
1,149.2 km
Apogee alt
1,149.3 km
Semi-major
7,527.4 km
B*
3.4977e-5
RAAN
162.3891°
Arg perigee
305.1987°
Mean anomaly
54.8879°
Rev number
3,880

§ Raw data

HULIANWANG DIGUI-1111 66921U 25285G   26263.97967229 -.00000108  00000+0  34977-4 0  99992 66921  50.0115 162.3891 0000066 305.1987  54.8879 13.29329313 38809

JSON: /api/v1/satellites/66921 · /tle

For live sub-satellite position, see the globe view (requires WebGL).

§ Visibility from observer

Set your observer location to see the next 7 days of passes ≥ 10°. The values pass through the URL so the page stays shareable.

No JS? Fill the form by hand. The geolocation button needs JavaScript.